Location: Newark
(16.9667°N, 88.2167°W)
Time: 09:48:20
(UTC+00:00)

LightSail 2 - Visible Passes

Search period start: 16 October 2019 00:00
Search period end: 26 October 2019 00:00
Orbit: 707 x 723 km, 24.0° (Epoch: 14 October)

Date Brightness Start Highest point End Pass type
(mag) Time Alt. Az. Time Alt. Az. Time Alt. Az.
16 Oct 6.3 01:28:49 10° WNW 01:32:27 35° NNW 01:32:27 35° NNW visible
17 Oct 6.0 00:31:11 10° WNW 00:36:00 38° N 00:38:26 24° NE visible
17 Oct 7.9 02:16:49 10° WNW 02:17:26 13° WNW 02:17:26 13° WNW visible
18 Oct 5.9 01:19:16 10° WNW 01:23:27 45° NNW 01:23:27 45° NNW visible
19 Oct 5.8 00:21:42 10° WNW 00:26:37 43° N 00:29:29 22° ENE visible
19 Oct 7.6 02:07:12 10° WNW 02:08:29 18° WNW 02:08:29 18° WNW visible
20 Oct 5.2 01:09:37 10° WNW 01:14:34 67° N 01:14:34 67° N visible
21 Oct 5.4 00:12:04 10° WNW 00:17:08 55° NNE 00:20:41 19° E visible
21 Oct 7.3 01:57:39 10° W 01:59:42 24° W 01:59:42 24° W visible
22 Oct 5.1 00:59:59 10° WNW 01:05:09 80° SSW 01:05:53 65° SE visible
23 Oct 5.1 00:02:22 10° WNW 00:07:32 79° NNE 00:12:08 13° ESE visible
23 Oct 7.0 01:48:19 10° W 01:51:09 27° WSW 01:51:09 27° WSW visible
24 Oct 5.8 00:50:27 10° W 00:55:25 49° SSW 00:57:28 31° SSE visible
24 Oct 5.5 23:52:42 10° WNW 23:57:49 67° SSW 00:02:57 10° ESE visible
25 Oct 7.2 01:39:25 10° WSW 01:42:55 20° SSW 01:42:55 20° SSW visible
